Simultaneous Nadir Overpasses (SNOs) Predictions

Prediction of SNOs between LANDSAT-8 and NOAA-19 Satellite Orbit:

Table of predicted SNOs for the next 14.0 days since TLE Epoch: 3/2/2018
Index Date (LANDSAT-8) Time (LANDSAT-8) Lat,Lon (LANDSAT-8) SZA (LANDSAT-8 ) Date (NOAA-19) Time (NOAA-19) Lat,Lon (NOAA-19) SZA (NOAA-19 ) Distance(km) Time Diff (sec)
1 03/04/2018 03:00:55 -77.26, -32.92 96.16 03/04/2018 03:00:38 -77.25, -32.83 96.16 2.34 17
2 03/04/2018 03:50:24 77.11, 134.14 83.66 03/04/2018 03:51:35 77.08, 135.22 83.69 26.84 71
3 03/06/2018 08:34:37 77.26, 63.65 82.99 03/06/2018 08:34:18 77.26, 63.81 82.99 3.96 19
4 03/06/2018 09:24:05 -77.23,-128.83 97.07 03/06/2018 09:25:17 -77.23,-128.83 97.05 0.78 72
5 03/08/2018 14:08:20 -77.28, 160.32 97.85 03/08/2018 14:07:56 -77.27, 160.41 97.86 2.74 24
6 03/08/2018 14:57:47 77.22, -32.28 82.07 03/08/2018 14:58:58 77.26, -32.30 82.12 4.20 71
7 03/10/2018 19:42:02 77.27,-103.15 81.28 03/10/2018 19:41:37 77.28,-102.97 81.28 4.56 25
8 03/10/2018 20:31:30 -77.25, 64.38 98.77 03/10/2018 20:32:35 -77.26, 64.38 98.75 1.07 65
9 03/13/2018 01:15:45 -77.30, -6.49 99.57 03/13/2018 01:15:14 -77.30, -6.41 99.57 1.97 31
10 03/13/2018 02:05:11 77.28, 161.07 80.40 03/13/2018 02:06:16 77.25, 161.09 80.38 3.61 65
11 03/15/2018 06:49:26 77.32, 90.18 79.59 03/15/2018 06:48:56 77.31, 90.19 79.57 1.46 30




NCC Satellite Simultaneous Nadir Overpasses (SNOs) Prediction Service
